Location: Newark
(40.2401°N, 1.4098°W)
Time: 13:08:36
(UTC+00:00)

N. Korean satellite - Pass Details

Date: 01 November 2019
Orbit: 456 x 506 km, 97.2° (Epoch: 14 November)

Event Time Altitude Azimuth Distance (km) Brightness Sun altitude
Rises 18:07:04 0° 205° (SSW) 2,478 10.6 -12.7°
Reaches altitude 10° 18:09:42 10° 227° (SW) 1,617 10.1 -13.2°
Maximum altitude 18:11:54 16° 267° (W) 1,306 10.0 -13.6°
Drops below altitude 10° 18:14:08 10° 307° (NW) 1,642 9.9 -14.0°
Sets 18:16:51 0° 329° (NNW) 2,538 10.5 -14.5°
